TimeMDT,TemperatureF,Dew PointF,Humidity,Sea Level PressureIn,VisibilityMPH,Wind Direction,Wind SpeedMPH,Gust SpeedMPH,PrecipitationIn,Events,Conditions,WindDirDegrees,DateUTC
12:29 AM,30.2,28.4,93,30.14,10.0,SW,4.6,-,N/A,,Overcast,220,2012-10-27 06:29:00
12:53 AM,30.0,28.9,96,30.23,10.0,Calm,Calm,-,N/A,,Overcast,0,2012-10-27 06:53:00
1:53 AM,28.9,28.9,100,30.23,7.0,Calm,Calm,-,N/A,,Overcast,0,2012-10-27 07:53:00
2:53 AM,28.9,28.0,96,30.22,4.0,Calm,Calm,-,N/A,,Overcast,0,2012-10-27 08:53:00
3:01 AM,28.4,28.4,100,30.14,4.0,Calm,Calm,-,N/A,,Overcast,0,2012-10-27 09:01:00
3:17 AM,28.4,28.4,100,30.13,2.5,Calm,Calm,-,N/A,,Overcast,0,2012-10-27 09:17:00
3:24 AM,30.2,28.4,93,30.13,4.0,Calm,Calm,-,N/A,,Overcast,0,2012-10-27 09:24:00
3:53 AM,28.9,28.0,96,30.21,4.0,Calm,Calm,-,N/A,,Overcast,0,2012-10-27 09:53:00
4:28 AM,28.4,28.4,100,30.12,5.0,Calm,Calm,-,N/A,,Overcast,0,2012-10-27 10:28:00
4:53 AM,28.9,28.0,96,30.21,4.0,Calm,Calm,-,N/A,,Overcast,0,2012-10-27 10:53:00
5:15 AM,28.4,28.4,100,30.13,2.0,Calm,Calm,-,N/A,,Overcast,0,2012-10-27 11:15:00
5:34 AM,28.4,28.4,100,30.12,1.5,Calm,Calm,-,N/A,,Overcast,0,2012-10-27 11:34:00
5:43 AM,28.4,28.4,100,30.13,0.2,NNE,3.5,-,N/A,Fog,Light Freezing Fog,30,2012-10-27 11:43:00
5:53 AM,28.0,28.0,100,30.21,0.2,Calm,Calm,-,N/A,Fog,Light Freezing Fog,0,2012-10-27 11:53:00
6:44 AM,28.4,28.4,100,30.13,0.8,Calm,Calm,-,N/A,,Mist,0,2012-10-27 12:44:00
6:51 AM,28.4,28.4,100,30.13,1.2,Calm,Calm,-,N/A,,Overcast,0,2012-10-27 12:51:00
6:53 AM,28.0,28.0,100,30.22,1.2,Calm,Calm,-,N/A,,Overcast,0,2012-10-27 12:53:00
6:57 AM,28.4,28.4,100,30.13,0.8,ENE,3.5,-,N/A,,Mist,60,2012-10-27 12:57:00
7:14 AM,28.4,26.6,93,30.13,0.8,Calm,Calm,-,N/A,,Mist,0,2012-10-27 13:14:00
7:26 AM,26.6,26.6,100,30.13,0.8,ENE,3.5,-,N/A,,Mist,60,2012-10-27 13:26:00
7:42 AM,26.6,26.6,100,30.13,1.8,Calm,Calm,-,N/A,,Overcast,0,2012-10-27 13:42:00
7:47 AM,26.6,26.6,100,30.13,3.0,Calm,Calm,-,N/A,,Mostly Cloudy,0,2012-10-27 13:47:00
7:53 AM,26.1,26.1,100,30.23,5.0,Calm,Calm,-,N/A,,Mostly Cloudy,0,2012-10-27 13:53:00
8:03 AM,26.6,26.6,100,30.13,4.0,Calm,Calm,-,N/A,,Scattered Clouds,0,2012-10-27 14:03:00
8:53 AM,25.0,25.0,100,30.24,5.0,Calm,Calm,-,N/A,,Partly Cloudy,0,2012-10-27 14:53:00
9:53 AM,25.0,25.0,100,30.25,5.0,Calm,Calm,-,N/A,,Clear,0,2012-10-27 15:53:00
10:49 AM,24.8,24.8,100,30.16,6.0,NE,4.6,-,N/A,,Partly Cloudy,40,2012-10-27 16:49:00
10:53 AM,25.0,24.1,96,30.25,6.0,NE,4.6,-,N/A,,Scattered Clouds,40,2012-10-27 16:53:00
11:16 AM,26.6,23.0,86,30.16,6.0,ENE,3.5,-,N/A,,Mostly Cloudy,60,2012-10-27 17:16:00
11:27 AM,26.6,24.8,93,30.16,8.0,Calm,Calm,-,N/A,,Partly Cloudy,0,2012-10-27 17:27:00
12:53 PM,32.0,28.0,85,30.23,10.0,Calm,Calm,-,N/A,,Partly Cloudy,0,2012-10-27 18:53:00
1:53 PM,32.0,28.0,85,30.22,8.0,WSW,3.5,-,N/A,,Mostly Cloudy,250,2012-10-27 19:53:00
2:53 PM,33.1,28.9,85,30.21,10.0,WSW,4.6,-,N/A,,Overcast,250,2012-10-27 20:53:00
3:53 PM,34.0,28.0,79,30.20,10.0,WSW,3.5,-,N/A,,Overcast,240,2012-10-27 21:53:00
4:53 PM,34.0,28.0,79,30.21,10.0,Calm,Calm,-,N/A,,Overcast,0,2012-10-27 22:53:00
5:53 PM,34.0,28.0,79,30.20,9.0,ENE,4.6,-,0.00,Snow,Light Snow,60,2012-10-27 23:53:00
6:07 PM,33.8,28.4,81,30.12,10.0,East,3.5,-,0.00,,Overcast,90,2012-10-28 00:07:00
6:30 PM,33.8,28.4,81,30.11,10.0,NNE,4.6,-,0.00,,Overcast,30,2012-10-28 00:30:00
6:53 PM,33.1,28.9,85,30.18,10.0,NNE,5.8,-,0.00,,Overcast,30,2012-10-28 00:53:00
7:53 PM,33.1,30.0,89,30.19,10.0,NE,6.9,-,N/A,,Overcast,40,2012-10-28 01:53:00
8:53 PM,33.1,30.9,92,30.19,9.0,NE,3.5,-,N/A,,Overcast,50,2012-10-28 02:53:00
10:53 PM,34.0,32.0,92,30.18,10.0,NNW,3.5,-,N/A,,Overcast,330,2012-10-28 04:53:00
11:53 PM,35.1,30.9,85,30.18,10.0,Calm,Calm,-,N/A,,Overcast,0,2012-10-28 05:53:00